THOR AGENA B DEB, 2153

Orbit data source: Space-Track

THOR AGENA B DEB, 2153 is space debris in LEO originally from a launch on Mon, 29 Nov 1965 UTC launched from the Air Force Western Test Range (AFWTR). Debris objects in space refer to the collection of defunct objects orbiting the Earth. Examples of debris include non-operational satellites, rocket bodies, and fragments generated from explosions, collisions, or faulty payload assembly.

Loading next visibility...
Identifier
2153, 1965-098J
Orbit
LEO
Country
Flag of USUS
Related business
Manufacturer
Unknown
Mission
Spacecraft
Bus & Motor
Unknown
Mass
~1 kg wet, ~1 kg dry
Launch date (UTC)
1965-11-29 (60 years ago)
Launch vehicle
Unknown
Launch site
Air Force Western Test Range (AFWTR)
Object type
Payload
Rocket body
Debris
Shape & HBR
Ann Cyl, 0.1 m
Radar Cross Section
0.031 m², Small (<0.1 m²)

Expand to show TLE details & history
Last TLE update: 1 day ago

TLE from 1 day ago
0 THOR AGENA B DEB
1 02153U 65098J   25258.15176784  .00001267  00000-0  40723-3 0  9995
2 02153  79.7454 312.6754 1282001 254.1099 123.2677 12.38628407652979
Epoch: 2025-09-15T03:38Z
TLE epoch observation values (Epoch: 2025-09-15T03:38:32.741Z)
Latitude
28.12882°
Longitude
-90.79634°
Altitude
2,151.994 km
Speed
6.557 km/s
True Right ascension
21h 12m 48s
True Declination
28° 00' 34"
Sunlit
Object was in full shadow at epoch
Visualization orbit readout
Latitude
Unknown
Longitude
Unknown
Altitude
Unknown
Speed
Unknown
Apparent Right ascension
Unknown
Apparent Declination
Unknown
Sunlit
N/A
Visualization observer readout
Local Sidereal Time
20:37:15
Azimuth
Unknown
Elevation
Unknown
Doppler factor
Unknown
Orbital elements
Apogee altitude
2,521.079 km
Perigee altitude
498.6 km
Semi-major axis
7,887.976 km
Eccentricity
0.1282
Inclination
79.7454°
RAAN
312.6754°
Arg. of periapsis
254.1099°
True anomaly
134.48435°
Mean anomaly
123.2677°
Eccentric anomaly
128.97787°
Mean motion
3.0981 °/min
Orbital period
116.2 mins
BSTAR
0.00040723
Loading maneuver chart data...
Computing Atmospheric mass density...
Loading historical data...
Loading historical data...
Loading historical data...
Loading historical data...
Loading historical data...
Loading historical data...
Loading historical data...

Documentation

Showing up to 5 results
|